Location: DARK SKY Beskydy - Park tmavé oblohy, www.darkskybeskydy.cz
(49.4926°N, 18.5016°E)
Time: 07:16:38
(UTC+02:00)

Vanguard 2 Rocket - All Passes

Search period start: 12 September 2024 00:00
Search period end: 22 September 2024 00:00
Orbit: 553 x 3301 km, 32.9° (Epoch: 11 September)

Date Brightness Start Highest point End Pass type
(mag) Time Alt. Az. Time Alt. Az. Time Alt. Az.
12 Sep - 01:21:30 10° S 01:28:56 19° SE 01:38:36 10° E visible
12 Sep - 03:29:49 10° SW 03:41:37 38° SSE 03:58:11 10° ESE visible
12 Sep - 05:41:52 10° WSW 05:56:33 45° S 06:14:45 10° ESE visible
12 Sep - 07:56:29 10° W 08:11:58 34° SSW 08:28:05 10° SSE daylight
12 Sep - 10:16:13 10° WSW 10:25:51 16° SW 10:35:04 10° SSW daylight
13 Sep - 00:24:01 10° SE 00:26:07 11° SE 00:28:23 10° ESE visible
13 Sep - 02:27:45 10° SSW 02:37:42 31° SSE 02:51:58 10° E visible
13 Sep - 04:38:35 10° WSW 04:51:44 44° S 05:09:35 10° ESE visible
13 Sep - 06:52:00 10° WSW 07:07:08 39° SSW 07:24:29 10° SE daylight
13 Sep - 09:08:48 10° W 09:21:47 23° SW 09:34:42 10° S daylight
14 Sep - 01:26:25 10° S 01:34:19 23° SE 01:45:15 10° E visible
14 Sep - 03:35:48 10° SW 03:47:18 40° SSE 04:03:55 10° ESE visible
14 Sep - 05:48:09 10° WSW 06:02:15 42° S 06:20:05 10° SE visible
14 Sep - 08:03:09 10° W 08:17:22 29° SSW 08:32:32 10° SSE daylight
14 Sep - 10:28:13 10° WSW 10:30:54 10° SW 10:33:35 10° SW daylight
15 Sep - 00:26:30 10° SSE 00:31:25 14° SE 00:37:29 10° ESE visible
15 Sep - 02:33:32 10° SW 02:43:18 34° SSE 02:57:52 10° ESE visible
15 Sep - 04:44:48 10° WSW 04:57:29 43° S 05:15:02 10° ESE visible
15 Sep - 06:58:30 10° W 07:12:40 34° SSW 07:29:15 10° SSE daylight
15 Sep - 09:16:45 10° WSW 09:26:59 17° SW 09:37:23 10° S daylight
16 Sep - 01:31:51 10° SSW 01:39:50 27° SSE 01:51:28 10° E visible
16 Sep - 03:41:57 10° SW 03:53:03 41° S 04:09:28 10° ESE visible
16 Sep - 05:54:33 10° WSW 06:07:55 38° SSW 06:25:05 10° SE visible
16 Sep - 08:10:15 10° WSW 08:22:42 23° SW 08:36:14 10° S daylight
17 Sep - 00:31:04 10° S 00:36:50 18° SE 00:44:34 10° ESE visible
17 Sep - 02:39:32 10° SW 02:49:01 36° SSE 03:03:33 10° ESE visible
17 Sep - 04:51:09 10° WSW 05:03:15 40° S 05:20:13 10° SE visible
17 Sep - 07:05:14 10° WSW 07:18:11 29° SSW 07:33:28 10° SSE daylight
17 Sep - 09:27:21 10° WSW 09:32:09 11° SW 09:37:01 10° SSW daylight
18 Sep - 01:37:36 10° SSW 01:45:28 29° SSE 01:57:23 10° ESE visible
18 Sep - 03:48:13 10° WSW 03:58:51 40° S 04:14:49 10° ESE visible
18 Sep - 06:01:07 10° WSW 06:13:34 33° SSW 06:29:41 10° SE daylight
18 Sep - 08:18:09 10° WSW 08:28:01 17° SW 08:38:44 10° S daylight
19 Sep - 00:36:19 10° SSW 00:42:24 21° SE 00:50:58 10° ESE visible
19 Sep - 02:45:42 10° SW 02:54:50 37° S 03:09:02 10° ESE visible
19 Sep - 04:57:37 10° WSW 05:09:01 36° SSW 05:25:05 10° SE visible
19 Sep - 07:12:23 10° WSW 07:23:40 23° SSW 07:36:57 10° S daylight
19 Sep - 23:36:25 10° SSE 23:39:43 13° SE 23:43:41 10° ESE visible
20 Sep - 01:43:36 10° SW 01:51:14 31° SSE 02:03:05 10° ESE visible
20 Sep - 03:54:36 10° WSW 04:04:42 37° S 04:19:54 10° SE visible
20 Sep - 06:07:55 10° WSW 06:19:12 28° SSW 06:33:43 10° SSE daylight
20 Sep - 08:28:36 10° WSW 08:33:21 11° SW 08:38:19 10° SSW daylight
21 Sep - 00:42:00 10° SSW 00:48:05 24° SSE 00:57:01 10° ESE visible
21 Sep - 02:51:59 10° WSW 03:00:43 35° S 03:14:20 10° ESE visible
21 Sep - 05:04:14 10° WSW 05:14:48 31° SSW 05:29:32 10° SE visible
21 Sep - 07:20:23 10° WSW 07:29:09 17° SW 07:39:13 10° S daylight
21 Sep - 23:41:12 10° S 23:45:19 16° SE 23:50:38 10° ESE visible
